{"data":{"norad_id":66103,"epoch":"2026-09-20T00:26:01.286880Z","epoch_age_seconds":142025,"freshness":"FRESH","line1":"1 66103U 25236T   26263.01807045  .00016360  00000+0  49420-3 0  9995","line2":"2 66103  53.1555 277.9387 0002407  61.8258 298.2987 15.34403946 52740","mean_motion":15.34403946,"eccentricity":0.0002407,"inclination_deg":53.1555,"raan_deg":277.9387,"arg_perigee_deg":61.8258,"mean_anomaly_deg":298.2987,"bstar":0.0004942,"rev_number":5274,"period_min":93.847516734684,"perigee_km":461.04492446585,"apogee_km":464.33809931147,"semimajor_km":6840.8285118887,"source":"CELESTRAK","updated_at":"2026-09-21T09:00:35.803612Z"}}